一网星座-0339星 (ONEWEB-0339 )

导读

ONEWEB-0339是英国OneWeb星座的通信卫星,于2021年9月14日发射入轨。OneWeb是全球第二大低轨卫星互联网星座,聚焦为全球偏远地区提供高速低延迟宽带服务,目前在轨运营卫星达648颗。该卫星隶属于OneWeb第一代组网卫星,助力完成640颗卫星的初步部署,推动全球覆盖服务落地,彰显英国在低轨通信卫星领域的技术实力。

Basic Information
目录编号:
49205
目录名称:
ONEWEB-0339
国际标识:
2021-083V
轨道中心:
EARTH
卫星名称:
一网星座-0339星
卫星全名:
一网星座-0339星 (ONEWEB-0339 )
卫星状态:
在轨 (已飞行1824 天)
发射日期:
2021-09-14 UTC
国别 :
英国 (GB)
星等 :
--
This satellite is enrolled in the Space Conjunction Data Service (SCDS) and the current flight risk assessment level is: No High Risk
Orbit Information
数据来源 国际轨道数据 AOE轨道数据
星历时间 2026-09-11T23:54:15+0800
14小时前
查看轨道信息
2026-09-06T23:00:00+0800
5天前
查看轨道信息
半长轴 7587.907km 7587.906km
偏心率 0.0001987 0.0001891
轨道倾角 87.893° 87.895°
近地点辐角 91.763° 76.794°
升交点赤经 303.021° 304.024°
平近点角 268.373° 236.342°
近地点 1208.262km 1208.334km
远地点 1211.278km 1211.204km
周期 109.633分钟 109.633分钟
每日圈数 13.134689 13.134691
Detailed Information
平衡模式:
三轴稳定
覆盖范围:
全球
运营商:
一网卫星公司
运营商所在国:
英国
制造商(研发单位):
一网卫星公司
制造商所在国:
英国
使用方式:
暂无
Satellite Introduction
OneWeb卫星网络由648颗重约125公斤的微型卫星组成,运行在1200公里的轨道上。 每颗卫星都能够提供至少每秒8千兆位的吞吐量,以使用其高吞吐量的Ku频段有效载荷为家庭和移动平台提供互联网接入。该卫星仍在工作。
2D Orbit Map
3D Orbit Map
Orbit Altitude Analysis Chart
Orbit Inclination Analysis Chart
Orbit Comprehensive Analysis Chart
View Comprehensive Chart
Miss Distance Evolution Trend with All Objects
Collision Probability Evolution Trend with All Objects